TimePDT,TemperatureF,Dew PointF,Humidity,Sea Level PressureIn,VisibilityMPH,Wind Direction,Wind SpeedMPH,Gust SpeedMPH,PrecipitationIn,Events,Conditions,WindDirDegrees,DateUTC
12:00 AM,44.8,43.9,97,-9999,-9999.0,Calm,Calm,-,N/A,,Unknown,0,2013-03-29 07:00:00
1:00 AM,44.8,43.0,93,-9999,-9999.0,West,1.2,-,N/A,,Unknown,280,2013-03-29 08:00:00
2:00 AM,43.3,41.9,95,-9999,-9999.0,Calm,Calm,-,N/A,,Unknown,0,2013-03-29 09:00:00
3:00 AM,44.2,43.2,96,-9999,-9999.0,SSE,1.2,-,N/A,,Unknown,160,2013-03-29 10:00:00
4:00 AM,45.9,43.9,93,-9999,-9999.0,North,2.3,-,N/A,,Unknown,350,2013-03-29 11:00:00
5:00 AM,46,45,94,,,WSW,1.2,,,,,250,2013-03-29 12:00:00
5:00 AM,46.4,44.8,94,-9999,-9999.0,WSW,1.2,-,N/A,,Unknown,250,2013-03-29 12:00:00
6:00 AM,46.6,44.1,91,-9999,-9999.0,South,1.2,-,N/A,,Unknown,180,2013-03-29 13:00:00
7:00 AM,46.4,44.2,92,-9999,-9999.0,NNW,1.2,-,N/A,,Unknown,330,2013-03-29 14:00:00
8:00 AM,46.8,44.4,92,-9999,-9999.0,Calm,Calm,-,N/A,,Unknown,0,2013-03-29 15:00:00
9:00 AM,48.4,45.1,89,-9999,-9999.0,SW,1.2,-,N/A,,Unknown,230,2013-03-29 16:00:00
10:00 AM,52.2,45.1,77,-9999,-9999.0,SW,2.3,-,N/A,,Unknown,230,2013-03-29 17:00:00
11:00 AM,56,45,57,,,SW,2.3,,,,,230,2013-03-29 18:00:00
11:00 AM,56.5,45.1,66,-9999,-9999.0,SW,2.3,-,N/A,,Unknown,230,2013-03-29 18:00:00
12:00 PM,59.0,46.0,62,-9999,-9999.0,ESE,3.5,-,N/A,,Unknown,110,2013-03-29 19:00:00
1:00 PM,62.4,46.4,56,-9999,-9999.0,ESE,1.2,-,N/A,,Unknown,110,2013-03-29 20:00:00
2:00 PM,62.6,46.2,55,-9999,-9999.0,SSW,4.6,-,N/A,,Unknown,210,2013-03-29 21:00:00
3:00 PM,64.0,45.9,52,-9999,-9999.0,SW,5.8,-,N/A,,Unknown,220,2013-03-29 22:00:00
4:00 PM,64.9,48.2,55,-9999,-9999.0,SW,3.5,-,N/A,,Unknown,220,2013-03-29 23:00:00
5:00 PM,64,49,49,,,SSW,5.8,,,,,210,2013-03-30 00:00:00
5:00 PM,64.4,49.5,58,-9999,-9999.0,SSW,5.8,-,N/A,,Unknown,210,2013-03-30 00:00:00
6:00 PM,63.3,48.4,58,-9999,-9999.0,SSW,5.8,-,N/A,,Unknown,210,2013-03-30 01:00:00
7:00 PM,60.6,49.1,66,-9999,-9999.0,WSW,3.5,-,N/A,,Unknown,240,2013-03-30 02:00:00
8:00 PM,57.6,47.1,68,-9999,-9999.0,WSW,1.2,-,N/A,,Unknown,250,2013-03-30 03:00:00
9:00 PM,53.6,46.9,78,-9999,-9999.0,North,2.3,-,N/A,,Unknown,10,2013-03-30 04:00:00
10:00 PM,50.0,46.0,86,-9999,-9999.0,Calm,Calm,-,N/A,,Unknown,0,2013-03-30 05:00:00
11:00 PM,47,45,92,,,West,1.2,,,,,280,2013-03-30 06:00:00
11:00 PM,47.5,45.3,92,-9999,-9999.0,West,1.2,-,N/A,,Unknown,280,2013-03-30 06:00:00